Regional Weather Roundup
Issued by NWS

Home | Current Version | Previous Version | Text Only | Print | Product List | Glossary Off
Versions: 1 2 3 4 5 6 7 8 9 10 11 12 13 14 15 16 17 18 19 20 21 22 23 24 25 26 27 28 29 30 31 32 33 34 35 36 37 38 39 40 41 42 43 44 45 46 47 48 49 50

000
ASUS43 KFSD 060902
RWRSD

WEATHER ROUNDUP FOR SOUTH DAKOTA
NATIONAL WEATHER SERVICE SIOUX FALLS SD
300 AM CST FRI MAR 06 2015

NOTE: "FAIR" INDICATES FEW OR NO CLOUDS BELOW 12,000 FEET WITH NO
SIGNIFICANT WEATHER AND/OR OBSTRUCTIONS TO VISIBILITY.


SDZ001>005-009-010-012>017-061000-
NORTHWEST AND NORTH CENTRAL SOUTH DAKOTA

CITY           SKY/WX    TMP DP  RH WIND       PRES   REMARKS
BUFFALO          N/A     27  14  58 W9        30.00S WCI  18
FAITH            N/A     30  16  56 W13       30.05F WCI  20
MOBRIDGE       CLEAR     19  12  74 E5        30.02S WCI  12
$$

SDZ012>016-024>037-041>051-057-063-072>074-061000-
SOUTHWEST AND SOUTH CENTRAL SOUTH DAKOTA

CITY           SKY/WX    TMP DP  RH WIND       PRES   REMARKS
RAPID CTY ARPT CLOUDY    32  16  51 SW5       30.11S WCI  27
PIERRE         PTCLDY    24  15  68 W9        30.09S WCI  14
CUSTER         PTCLDY    27  10  49 W7        30.11R WCI  19
ELLSWORTH AFB  PTCLDY    30  17  56 SW8       30.09S WCI  23
PHILIP         PTCLDY    25  18  74 W8        30.11F WCI  16
PINE RIDGE     PTCLDY    27  18  69 SW7       30.17R WCI  19
SPEARFISH      FAIR      36  14  41 W14       30.11S
WINNER         PTSUNNY   31  18  58 W9        30.13S WCI  23
$$

SDZ004>011-016>023-039-040-061000-
NORTHEAST SOUTH DAKOTA

CITY           SKY/WX    TMP DP  RH WIND       PRES   REMARKS
ABERDEEN       CLOUDY    14   9  80 S5        30.03F WCI   6
WATERTOWN      PTCLDY    12   5  73 S7        30.04F WCI   1
SISSETON         N/A     25  12  58 W21G26    29.99  WCI  11
$$

SDZ017-020-022-023-036>040-048>070-061000-
SOUTHEAST SOUTH DAKOTA

CITY           SKY/WX    TMP DP  RH WIND       PRES   REMARKS
SIOUX FALLS    CLEAR     22   8  55 SW7       30.10F WCI  13
HURON          PTCLDY    14   7  73 S5        30.09S WCI   6
MITCHELL       CLEAR     22  14  71 W5        30.11S WCI  16
YANKTON        CLEAR     27  10  50 CALM      30.13F
$$

ABBREVIATIONS USED IN REMARKS
   TC - TEMPERATURE IN CELSIUS
  WCI - WIND CHILL INDEX
   HX - HEAT INDEX
  VSB - VISIBILITY



USA.gov is the U.S. government's official web portal to all federal, state and local government web resources and services.